Regional Weather Roundup
Issued by NWS

Home | Current Version | Previous Version | Text Only | Print | Product List | Glossary Off
Versions: 1 2 3 4 5 6 7 8 9 10 11 12 13 14 15 16 17 18 19 20 21 22 23 24 25 26 27 28 29 30 31 32 33 34 35 36 37 38 39 40 41 42 43 44 45 46 47 48 49 50

000
ASUS44 KMEG 011900
RWRTN
TENNESSEE HOURLY STATE WEATHER ROUNDUP
NATIONAL WEATHER SERVICE MEMPHIS TN
200 PM CDT WED APR 01 2015

TNZ002-004-019-021-049-052-054-088>092-012000-
WEST TENNESSEE

CITY           SKY/WX    TMP DP  RH WIND       PRES   REMARKS
MEMPHIS INTL   CLOUDY    79  63  57 S13       29.98F
NWS MEMPHIS      N/A     77 N/A N/A MISG        N/A
JACKSON        MOSUNNY   77  47  34 SE10      30.02F
DYERSBURG      SUNNY     75  43  31 S10G17    30.03S
PARIS          SUNNY     73  34  23 E10       30.03F
LEXINGTON      SUNNY     79  36  21 VRB3      30.02F
SAVANNAH       MOSUNNY   75  50  41 VRB6      30.04F
$$

TNZ008-025-027-028-033-062-065-066-012000-
NORTH MIDDLE TENNESSEE

CITY           SKY/WX    TMP DP  RH WIND       PRES   REMARKS
NASHVILLE      PTSUNNY   74  30  19 NE9       30.08F
CLARKSVILLE    SUNNY     72  36  26 SE8       30.06F
CROSSVILLE     SUNNY     68  19  15 NE3       30.10F
$$

TNZ061-075-076-078-094-096-097-012000-
SOUTH MIDDLE TENNESSEE

CITY           SKY/WX    TMP DP  RH WIND       PRES   REMARKS
FAYETTEVILLE   SUNNY     72  37  28 CALM      30.07S
TULLAHOMA      SUNNY     72  25  17 NE6       30.09F
WINCHESTER     SUNNY     72  36  26 N6        30.08F
COLUMBIA       SUNNY     73  39  29 E7        30.05F
SHELBYVILLE    SUNNY     73  36  25 E5        30.08F
$$

TNZ017-018-042-046-047-012000-
NORTHEAST TENNESSEE

CITY           SKY/WX    TMP DP  RH WIND       PRES   REMARKS
TRI CITIES     MOSUNNY   69  22  16 VRB5      30.11F
ELIZABETHTON   CLEAR     66  23  19 NW6       30.11S
$$

TNZ012-013-036-069-073-074-012000-
CENTRAL EAST TENNESSEE

CITY           SKY/WX    TMP DP  RH WIND       PRES   REMARKS
KNOXVILLE      MOSUNNY   71  31  22 N12       30.07F
OAK RIDGE      SUNNY     72  26  18 VRB5      30.09F
$$

TNZ083-085-099-012000-
SOUTHEAST TENNESSEE

CITY           SKY/WX    TMP DP  RH WIND       PRES   REMARKS
CHATTANOOGA    PTSUNNY   74  32  21 CALM      30.08F
$$

SKY/WX REPORTED AS FAIR MEANS FEW OR NO CLOUDS BELOW
12 THOUSAND FEET.




USA.gov is the U.S. government's official web portal to all federal, state and local government web resources and services.